Theta_e
292 292 293 292 294 295 296 296 297 297 296 296 296 295 296 297 298 298 298 299 299 299 300 298 301 304 305 302 302 302 302 302 299 301 303 302 303 304 303 301 303 302 304 305 304 303 305 297 301 302 293 292 291 288
292 292 293 294 295 295 296 296 296 296 297 296 297 297 298 298 298 298 297 298 299 296 300 298 298 300 303 303 301 300 301 300 300 300 301 303 305 307 305 307 305 302 299 301 301 298 296 295 294 293 292 291 291 288
292 292 293 294 295 295 295 295 296 296 296 297 296 297 298 296 299 298 298 298 299 299 299 299 299 298 302 303 301 301 299 301 302 301 301 304 306 304 306 302 304 304 300 297 298 297 296 295 295 294 292 290 290 289
292 293 294 294 293 294 294 294 295 296 296 296 297 297 297 299 298 297 298 298 300 300 299 299 299 300 299 301 301 301 301 300 300 301 300 304 306 303 304 303 302 302 301 299 298 296 295 294 293 292 291 290 289 287
292 293 294 293 292 294 296 298 297 296 296 296 296 296 298 299 298 298 298 298 300 299 297 298 298 300 300 300 300 301 299 298 299 299 300 303 302 302 302 301 301 301 298 297 296 296 294 293 292 291 290 289 286 286
293 293 293 293 295 298 299 299 299 298 298 297 299 298 297 297 298 298 295 298 300 300 295 298 297 299 300 300 300 300 299 298 298 299 300 301 302 301 301 301 300 299 298 297 294 294 292 292 291 290 290 288 287 287
292 292 293 297 297 296 296 296 297 297 297 297 297 296 296 297 298 296 298 299 299 299 294 296 297 297 299 300 298 299 298 298 297 297 298 300 301 301 297 299 299 296 294 293 292 292 292 291 291 290 289 288 288 286
292 295 295 295 294 294 295 295 295 296 296 296 296 296 298 297 298 298 297 298 299 300 297 298 298 297 298 299 299 297 298 298 297 297 297 298 297 299 300 297 296 294 293 293 293 293 292 292 291 290 289 288 287 286
294 295 294 293 295 296 296 296 296 296 296 296 296 297 297 297 297 297 297 299 299 299 297 297 297 295 297 298 297 297 298 297 297 298 299 298 296 299 298 297 295 294 293 295 293 292 291 291 291 290 288 288 287 287
295 294 294 295 295 295 295 295 296 296 297 296 295 296 297 298 296 296 297 295 296 296 298 298 296 298 298 294 296 297 296 297 299 298 296 297 296 298 297 295 294 294 295 293 292 292 292 291 290 288 288 287 287 285
293 293 294 294 295 295 295 294 296 296 296 296 295 294 295 295 298 297 294 295 295 297 298 298 296 298 297 297 297 297 297 296 300 299 298 297 297 295 294 293 293 293 295 293 291 290 290 289 288 288 287 286 285 284
293 293 294 294 295 295 295 294 295 295 296 296 296 296 297 298 295 296 295 295 298 299 297 298 297 297 298 298 296 296 299 296 302 295 295 293 297 293 293 293 292 293 293 293 291 290 288 288 288 288 287 285 283 281
292 294 294 294 294 293 293 294 294 295 296 297 297 297 295 292 291 292 293 296 296 296 297 296 297 296 297 295 294 295 292 293 294 287 294 298 297 295 294 293 293 291 292 291 289 288 287 286 286 286 283 281 280 278
293 294 294 294 293 293 293 295 296 296 297 294 293 290 289 289 296 299 300 295 294 295 297 295 295 296 292 294 290 291 292 293 288 293 296 297 297 295 293 293 293 290 289 289 286 285 285 285 283 282 281 280 279 277
293 293 292 292 292 294 295 296 296 296 295 294 294 294 292 295 294 295 294 296 294 295 295 295 294 294 291 288 290 292 290 290 291 290 295 296 295 294 293 293 291 286 285 284 284 283 282 282 281 279 279 279 278 277
292 292 291 292 292 293 295 295 295 295 294 293 294 294 291 295 296 297 297 295 296 293 292 294 294 291 292 292 294 291 295 292 290 294 294 294 294 293 292 291 288 285 284 282 282 282 280 280 279 278 278 278 277 276
292 292 291 292 294 294 295 295 294 294 293 294 294 296 290 294 296 296 294 293 292 294 292 294 293 295 293 294 297 296 295 296 293 293 292 291 291 289 287 285 284 282 282 281 281 280 279 278 278 277 276 275 276 276
291 291 291 292 294 295 295 295 292 293 295 293 294 293 292 291 292 292 290 290 294 293 294 296 292 293 287 296 297 293 293 291 291 291 290 289 288 286 285 283 283 282 281 281 281 279 278 278 278 278 277 276 276 275
291 292 293 294 294 295 292 293 293 294 294 292 291 288 286 287 287 290 290 290 292 294 292 292 293 293 298 297 296 292 291 290 290 289 287 286 286 284 283 283 282 281 281 280 280 279 279 279 278 277 277 276 275 275
294 294 294 294 294 294 293 292 293 292 292 291 289 289 289 288 288 288 290 290 292 293 294 293 295 296 295 294 292 292 290 289 288 288 286 285 284 283 283 282 282 281 281 281 280 280 280 279 277 277 277 276 275 276
294 293 294 294 294 294 293 292 292 292 291 290 289 292 292 290 289 287 287 289 290 292 296 292 293 292 289 290 292 290 289 289 287 284 284 285 284 284 283 283 282 282 281 281 280 280 280 278 278 277 277 277 276 277
293 293 293 293 291 291 290 291 292 290 292 292 292 293 293 292 292 291 290 288 288 291 290 293 292 291 290 292 291 292 290 289 288 286 285 285 284 283 283 282 282 281 281 281 280 279 280 279 279 278 278 278 278 278
293 292 293 291 288 286 291 291 292 293 293 292 292 293 292 292 292 291 292 292 292 290 291 291 291 292 290 290 290 290 290 289 287 285 284 284 284 283 284 283 282 281 280 281 281 281 280 280 280 279 279 279 278 277
291 291 288 287 287 285 287 289 291 292 292 293 292 291 292 291 291 291 291 291 290 287 288 288 290 290 290 289 287 286 290 289 287 286 285 285 284 285 284 283 283 283 283 282 281 281 281 280 280 279 278 278 277 275
284 284 284 283 284 285 285 286 289 289 287 290 288 289 290 291 292 290 291 292 289 288 290 288 288 289 289 288 287 288 289 289 288 287 287 287 286 285 284 284 284 285 284 282 282 281 280 279 279 278 277 277 275 274
283 282 285 283 283 286 287 285 284 286 284 285 288 292 292 291 288 290 294 289 291 289 289 288 288 288 289 289 287 286 289 290 289 287 287 287 286 285 284 282 282 284 284 283 282 281 280 279 278 278 276 276 276 274
283 283 288 288 290 290 285 285 289 285 284 284 283 287 280 284 283 290 290 288 285 288 289 289 290 289 288 286 287 287 289 289 289 288 288 287 287 286 286 283 282 285 284 284 283 282 280 279 278 278 277 276 276 276
285 285 284 283 284 285 282 281 282 283 283 289 285 282 284 286 290 290 287 287 287 287 287 288 289 289 287 286 286 286 286 287 286 286 286 286 286 286 286 285 285 285 285 284 284 282 281 281 279 279 278 276 275 275
284 283 284 282 283 286 283 284 284 288 289 285 281 283 288 290 289 287 286 286 285 286 286 286 285 286 285 284 284 285 285 285 284 277 274 274 278 284 285 285 285 285 285 283 283 283 282 281 280 279 278 277 276 275
284 281 282 278 279 283 289 288 290 285 286 289 283 285 287 287 287 287 286 286 286 286 286 285 285 285 284 283 283 283 283 283 283 282 277 277 280 283 284 283 283 283 283 282 281 279 280 280 278 278 276 274 273 272
287 280 280 280 280 284 288 287 287 287 288 289 288 290 290 288 285 284 284 285 286 287 287 285 285 284 284 284 283 283 282 283 283 284 284 284 282 282 283 283 282 281 282 281 280 279 278 276 276 274 273 272 271 271
289 289 281 282 287 286 286 287 289 288 287 288 283 288 288 288 288 281 280 282 284 285 285 286 286 285 285 285 285 284 283 283 283 284 284 283 282 282 282 282 282 281 281 280 279 277 277 276 274 273 271 270 269 268
285 288 285 283 284 287 287 285 281 285 285 285 287 287 288 287 286 275 278 279 280 280 281 282 285 285 285 285 285 285 284 283 282 282 282 282 281 281 280 280 280 280 279 278 277 276 275 274 273 271 270 269 267 266
Wind_Speed
11 14 15 20 18 9 10 17 20 23 28 30 30 30 28 29 33 25 13 14 4 1 1 3 5 8 3 5 5 5 4 2 1 3 3 2 3 3 3 4 6 9 6 3 3 2 5 2 0 5 5 4 7 5
11 14 15 17 14 9 9 11 15 18 22 25 22 29 27 30 27 24 6 16 7 3 1 3 11 13 4 4 5 5 4 5 4 3 1 3 2 0 4 3 3 1 5 5 2 2 2 3 4 7 5 9 7 9
12 14 16 16 12 12 16 19 21 22 24 24 27 24 21 22 34 22 17 16 5 2 1 1 4 8 5 2 3 4 1 5 2 4 3 2 3 3 3 3 3 2 3 4 4 4 5 7 8 8 10 9 11 12
12 14 16 16 18 20 25 24 25 31 34 29 27 22 17 22 28 21 15 17 3 2 2 3 12 5 4 10 16 6 7 3 5 3 2 3 2 1 3 4 3 3 5 7 4 7 8 6 7 11 11 12 12 10
13 15 14 22 19 7 10 18 25 31 34 31 28 26 27 31 23 16 15 17 3 1 3 2 3 7 7 6 12 10 7 4 2 2 2 2 1 2 1 3 2 1 5 4 4 12 4 11 11 13 12 11 10 12
9 13 20 9 3 24 35 34 32 32 36 35 36 33 31 29 22 13 2 13 14 5 3 2 3 6 9 10 8 5 2 3 2 3 2 1 2 3 3 1 1 2 3 3 4 9 8 15 14 12 12 13 11 11
13 8 7 23 24 28 28 31 33 37 37 35 33 29 28 27 19 2 2 9 19 10 2 2 2 4 4 3 3 3 3 2 3 2 2 2 1 3 2 2 4 5 9 13 16 18 13 13 9 13 12 17 19 17
9 11 24 24 27 27 29 30 30 31 32 32 31 28 25 22 1 1 5 12 13 2 2 3 1 3 4 2 2 2 2 3 4 2 2 2 2 2 2 5 8 8 12 15 8 2 12 14 16 14 18 17 13 11
11 23 26 28 27 28 29 31 32 32 31 32 29 24 12 3 1 2 10 8 7 3 3 2 4 2 2 2 1 3 3 3 2 2 1 2 2 1 6 12 11 12 6 8 11 14 16 17 15 15 15 14 13 12
18 26 28 28 28 29 25 25 29 28 31 32 14 3 2 3 9 11 3 2 3 2 2 2 2 1 3 1 2 2 2 2 1 2 2 3 1 3 10 7 10 7 10 14 14 14 16 15 15 15 14 10 12 12
26 28 28 27 28 26 23 28 32 33 18 3 1 2 4 9 2 2 1 2 1 2 1 1 3 4 1 3 2 1 2 0 2 3 3 1 1 0 6 8 6 7 11 11 9 9 11 13 13 12 11 15 18 19
28 28 27 24 24 26 30 26 19 10 4 3 5 7 5 2 3 4 1 2 1 3 0 4 3 3 2 2 3 3 2 2 1 1 3 0 1 4 7 7 6 7 10 9 15 13 14 14 15 16 17 17 19 22
27 28 27 25 23 23 21 12 6 7 14 5 2 3 3 3 6 4 3 2 2 0 1 2 3 2 3 4 3 3 4 2 1 3 2 2 4 5 7 6 6 6 12 11 9 15 21 17 20 23 17 17 25 24
27 26 25 21 18 18 9 10 8 4 3 3 3 4 3 3 1 1 1 2 2 3 6 4 3 3 1 3 0 4 2 2 3 1 3 2 6 7 5 6 9 6 7 10 11 17 19 20 16 19 23 25 25 23
25 25 23 17 14 13 12 11 8 8 4 3 3 3 2 1 3 2 1 2 3 2 4 3 3 3 2 3 1 3 4 1 4 4 1 4 7 8 8 8 8 8 8 8 13 13 15 19 19 17 19 23 23 26
24 21 16 12 12 10 9 8 8 4 3 3 4 3 2 4 2 2 3 3 4 2 2 3 3 3 1 3 3 3 4 4 3 1 2 5 6 6 7 7 7 10 12 13 13 15 17 17 18 19 20 21 23 25
17 6 13 9 8 7 7 5 4 4 3 3 3 3 2 3 2 2 2 2 3 3 2 2 3 3 2 1 1 1 2 1 3 2 3 3 7 7 7 7 11 13 13 15 16 15 16 20 23 20 16 17 22 22
12 12 7 5 6 9 5 6 3 4 4 3 3 2 3 2 1 2 3 2 3 2 2 1 2 3 3 2 2 1 2 2 3 3 3 5 5 8 11 9 12 14 14 15 16 18 20 19 16 14 17 18 19 20
14 8 4 5 4 3 3 5 4 3 3 1 2 2 2 0 1 0 2 3 1 1 3 2 4 1 2 1 2 2 3 2 2 2 2 5 9 11 13 14 15 14 15 16 16 14 15 15 15 19 20 20 17 19
10 10 8 8 4 4 4 3 4 3 2 1 2 3 1 1 1 2 3 3 3 2 4 3 1 1 1 1 1 3 3 5 4 3 3 3 8 12 11 12 11 14 14 14 12 15 14 13 16 19 20 21 22 21
7 9 8 8 5 8 3 2 3 2 2 2 2 2 2 2 3 3 3 3 3 2 2 2 2 2 1 3 9 9 5 5 3 3 3 3 7 10 10 12 14 12 12 11 11 12 14 14 17 21 23 24 26 26
6 6 4 6 4 3 3 4 3 2 2 1 2 1 2 1 2 2 2 4 2 1 1 1 2 1 1 3 2 8 12 11 10 7 11 14 5 4 7 11 12 9 12 14 13 14 15 18 20 22 22 22 23 24
4 4 4 5 5 4 1 3 3 1 3 1 1 2 2 1 1 1 2 1 1 1 1 2 3 7 5 5 7 6 7 12 7 8 11 10 12 13 13 16 17 15 10 15 18 19 19 21 23 25 23 25 24 24
5 4 3 2 3 1 2 3 2 2 2 1 2 3 2 1 0 0 1 1 1 0 2 1 3 2 3 3 1 1 6 11 11 10 13 13 7 9 14 14 17 18 19 18 19 20 22 22 25 26 27 26 25 24
5 5 4 4 3 4 3 3 2 3 1 1 3 1 2 2 1 1 1 2 1 1 2 1 1 1 2 1 1 4 9 12 9 4 14 14 11 10 10 14 17 18 19 21 18 21 20 23 25 27 28 28 26 24
4 4 3 2 2 3 2 2 1 3 2 2 1 2 2 1 1 2 1 1 1 1 2 2 2 1 1 1 2 2 4 8 8 6 12 16 16 14 9 5 5 12 22 25 25 22 22 23 25 26 25 26 28 27
3 2 2 0 1 2 3 2 1 4 2 3 2 3 3 2 3 2 1 2 1 2 1 2 5 5 4 6 9 8 8 8 7 9 8 13 13 15 18 17 12 18 22 24 26 27 27 25 25 25 23 24 27 26
3 2 3 3 2 1 3 2 2 2 2 1 3 2 6 5 2 1 1 3 5 6 6 6 4 8 13 13 11 11 9 10 12 12 11 9 7 8 10 13 13 16 19 22 26 26 27 28 27 26 26 25 25 24
1 2 3 2 2 1 1 2 2 0 2 1 4 1 1 2 2 2 5 7 6 6 5 5 6 8 10 9 7 4 10 15 10 4 3 1 2 3 11 12 14 17 19 22 24 24 24 25 26 26 24 24 24 22
2 1 3 1 3 2 2 1 1 1 2 2 1 1 2 2 3 5 7 7 6 5 6 6 6 6 6 8 7 8 10 9 6 6 4 4 7 9 16 18 18 18 19 21 21 22 22 22 23 23 23 23 22 22
2 3 3 1 3 1 1 0 1 0 1 1 2 1 2 2 3 3 3 1 2 4 7 8 9 9 8 8 7 6 5 13 10 9 10 8 12 15 18 18 18 20 23 23 25 25 25 24 25 26 24 23 23 22
2 3 2 1 1 1 1 1 1 1 2 1 1 1 1 1 3 1 5 3 1 3 1 6 10 9 11 10 11 12 5 10 11 8 7 12 18 18 19 20 20 22 24 25 25 25 25 25 25 24 23 21 20 19
2 1 1 2 1 3 2 2 1 2 1 2 2 1 1 1 3 2 2 3 5 4 4 4 2 6 9 9 9 13 11 7 5 8 8 14 18 19 19 19 19 20 22 23 23 23 22 21 22 21 20 20 19 18
Wind_Direction
272 280 288 290 300 224 229 212 212 214 215 216 213 216 212 206 201 193 173 174 161 160 227 251 274 213 158 172 147 162 98 259 3 100 131 175 124 218 139 205 172 180 173 175 143 114 251 11 145 185 150 83 117 103
279 287 292 295 297 277 233 211 202 204 205 203 198 198 192 194 199 188 145 179 174 136 239 247 288 302 221 194 134 172 162 173 185 111 182 118 114 147 170 161 48 177 176 157 165 174 84 32 97 122 119 128 123 121
287 289 290 295 287 273 254 246 227 216 199 196 196 198 194 223 179 164 162 177 168 154 0 345 290 341 167 226 279 125 287 163 160 173 165 138 137 157 149 218 102 92 145 96 129 141 116 97 87 105 119 116 124 127
288 293 294 293 287 275 266 241 232 212 205 201 198 186 201 160 152 157 154 185 177 114 103 281 253 197 190 226 210 198 149 99 115 90 85 105 123 146 181 152 130 192 116 130 78 126 123 136 125 125 117 113 116 120
295 296 302 301 295 234 214 189 189 198 197 192 188 185 182 157 158 160 163 186 233 151 154 213 304 16 124 101 97 112 103 100 88 68 71 99 65 109 17 78 62 260 153 163 208 170 145 155 142 136 129 134 131 131
330 318 303 284 273 110 119 120 126 136 149 160 155 150 152 154 145 128 89 222 193 197 96 59 297 13 33 90 94 101 110 94 102 122 131 114 166 114 95 113 39 16 58 145 152 131 119 134 132 140 140 140 141 141
328 325 21 115 119 114 110 114 118 124 131 137 144 147 150 158 148 154 187 162 188 199 98 55 359 324 342 11 22 38 39 83 102 106 73 134 59 81 89 158 137 88 99 103 110 109 112 143 151 149 144 142 142 137
355 105 122 125 123 121 122 125 128 132 136 137 137 142 151 156 119 294 143 157 171 194 113 105 302 15 360 19 46 355 48 29 16 117 41 86 18 74 81 129 122 119 118 126 152 144 141 135 146 152 148 141 140 142
89 125 129 130 127 124 123 125 126 133 129 129 130 125 123 158 125 197 151 165 206 224 126 107 133 198 2 0 44 27 55 45 303 70 73 83 333 74 172 156 152 154 161 147 123 125 135 144 148 146 147 150 150 155
130 133 131 129 126 127 123 131 133 135 132 126 119 104 94 214 144 137 164 43 19 335 56 96 123 115 105 4 8 69 16 137 77 281 59 68 253 354 143 145 147 166 135 133 134 148 152 153 152 155 158 150 147 141
136 134 132 125 128 131 121 125 129 128 125 73 82 99 95 122 106 49 55 103 301 45 54 121 125 126 292 101 162 146 161 191 98 260 116 7 320 82 137 130 144 134 139 152 145 147 148 149 154 151 144 141 139 141
133 134 131 126 125 127 123 122 128 128 135 188 123 104 128 92 42 88 321 330 79 164 40 117 156 135 24 96 88 349 99 40 138 284 79 317 255 142 135 143 146 134 130 131 140 141 142 145 147 144 143 139 136 142
134 133 131 128 124 128 117 120 123 125 123 113 72 63 67 331 51 115 172 287 73 291 129 96 48 95 41 40 56 67 68 208 65 47 199 186 134 125 139 130 112 120 125 116 108 120 118 114 125 129 124 135 141 139
133 136 136 133 123 134 114 83 90 52 92 90 97 40 103 344 80 109 58 161 243 113 99 94 56 81 8 54 145 79 252 66 42 55 229 173 152 134 128 138 129 112 110 122 123 126 126 124 122 134 143 149 147 143
125 129 123 113 114 112 78 76 47 48 54 55 47 54 64 14 33 0 325 62 359 141 88 58 49 80 25 71 50 97 36 267 194 220 180 162 143 140 136 129 127 122 118 114 125 125 124 128 129 125 142 151 154 153
127 123 100 98 93 101 81 69 49 45 55 61 42 50 43 86 34 29 31 28 358 71 66 60 95 60 349 135 81 197 144 214 230 182 95 124 133 135 137 130 124 123 124 120 124 130 128 133 136 135 147 154 156 158
111 116 129 108 92 94 50 42 34 49 69 48 31 20 77 70 41 33 33 329 316 66 103 96 81 195 110 67 121 81 175 178 132 92 83 113 134 125 115 112 118 121 122 126 124 127 126 134 138 133 134 153 157 161
109 130 121 67 71 82 46 30 68 65 54 16 61 19 61 25 56 15 329 345 38 60 69 134 133 66 131 143 187 153 103 48 63 93 102 108 109 112 123 121 123 128 128 132 134 135 137 140 142 144 144 149 149 153
112 111 95 63 61 78 64 22 50 77 47 34 9 13 85 286 260 344 341 330 263 105 93 44 68 82 111 104 128 105 127 115 115 82 79 96 120 125 123 127 131 132 138 142 146 151 155 157 155 152 154 156 155 159
81 71 63 69 85 69 59 10 45 70 66 260 32 9 92 162 255 353 343 6 34 44 39 49 87 40 111 326 161 113 110 125 122 115 109 108 128 134 137 141 141 142 141 145 146 148 149 147 155 159 162 164 161 167
69 42 48 58 57 59 84 54 49 102 100 74 283 56 355 7 26 20 2 344 52 44 68 83 95 66 35 342 100 109 122 131 162 153 157 142 153 145 140 142 146 147 151 156 156 166 167 162 164 168 172 177 174 169
22 31 43 40 69 50 61 20 110 108 73 108 32 70 76 40 6 358 319 36 66 331 98 107 129 132 57 69 82 145 174 175 167 141 136 137 153 156 162 161 156 158 164 170 168 167 170 169 167 169 175 173 174 173
35 34 47 45 61 46 284 355 80 79 98 183 36 99 43 50 31 309 86 79 123 323 80 89 78 114 103 88 100 98 131 138 134 141 149 156 163 168 170 175 182 167 165 183 185 177 162 163 162 166 174 164 156 149
33 52 54 69 79 210 2 19 54 79 103 160 144 105 112 112 6 64 165 143 261 219 66 65 102 94 76 73 69 62 121 147 132 143 161 155 155 176 180 180 189 193 191 188 178 168 157 153 163 160 157 154 153 151
68 329 76 353 336 63 47 21 7 69 138 222 83 67 146 193 180 183 180 166 219 156 160 342 329 70 167 184 128 153 150 157 147 158 182 180 166 153 167 187 193 195 191 177 156 153 153 156 161 162 164 163 158 156
73 289 95 194 299 102 187 80 184 180 118 53 87 104 160 157 116 229 95 174 97 134 155 177 190 128 37 165 132 143 157 179 185 154 181 193 182 174 167 160 166 183 190 190 171 159 161 163 165 168 168 171 170 165
68 297 311 273 142 73 25 1 44 92 108 156 186 160 96 98 247 237 145 28 126 114 106 170 184 168 145 128 139 146 155 172 193 188 189 201 210 212 199 181 182 190 188 194 188 184 172 169 171 172 170 175 182 183
183 133 128 275 39 49 127 49 100 189 240 271 89 134 161 189 191 67 102 92 132 134 115 83 107 157 154 152 145 134 131 147 144 140 142 146 173 195 212 217 213 189 188 196 194 191 188 181 177 179 179 175 180 191
59 295 82 33 12 55 152 162 227 234 317 119 131 199 171 50 29 98 120 143 147 151 138 129 99 124 129 140 143 143 165 160 132 101 109 184 18 149 184 185 181 182 187 189 192 193 190 188 186 186 185 182 180 181
271 116 88 76 112 243 226 310 43 341 24 54 114 48 65 85 49 88 135 154 178 190 190 183 180 173 162 155 158 174 190 194 215 183 163 193 197 168 171 166 165 171 175 172 165 161 178 179 178 173 165 161 165 168
174 69 53 103 190 262 69 59 92 103 51 51 31 55 89 125 101 76 114 139 243 216 171 168 182 191 199 201 200 205 233 220 229 241 234 239 196 183 185 183 177 174 176 174 168 168 167 166 165 164 165 167 169 171
169 202 135 54 147 144 176 195 194 218 169 111 248 149 87 125 228 107 8 346 192 104 160 211 205 214 221 229 230 217 235 227 220 225 224 198 185 183 179 176 175 175 176 173 173 171 172 171 170 172 171 172 172 175
95 118 97 109 104 189 161 164 255 201 193 202 231 172 157 233 247 221 75 67 100 84 56 38 233 240 226 223 222 212 210 200 215 204 202 194 189 180 177 176 177 178 178 175 174 172 171 171 171 172 173 172 172 173